FENGYUN 1C DEB

Satellite information

Favourite Embed

Satellite Type and Status

DEBRISIN ORBIT

Key statistics

Satellite FENGYUN 1C DEB at a glance.

Uptime

9555

Days in orbit

Revolutions

≈ 14.3

Per day

Orbit

SSO

Sun Synchronous Orbit

Inclination

99.0

Latest

Satellite identification and parameters

Extended collection of information and parameters for FENGYUN 1C DEB.

Object identification

Identified? True

Debris? True

Object name: FENGYUN 1C DEB

International designator: 1999-025ENT

Object number (NORAD): 37918

Object ID (CCSDS): 37918

Country: PEOPLES REPUBLIC OF CHINA (PRC)

Current information (Y/N): Y

RCS size: SMALL

Orbital parameters

Period: 100.447 minutes

Inclination: 99.0092 deg

SMA: 7157.888 km

Apoapsis: 821.16 km

Periapsis: 738.346 km

RAAN: 127.1922 deg

Eccentricy: 0.0057848

Argument of periapsis: 37.2184 deg

Mean anomaly: 323.2987 deg

Mean motion: 14.33591543 rev/day

Mean motion (dot): 0.00001277 rev/day2

B* drag term: 0.00046927 1/REarth

Two-line elements (TLE)

Creation date: July 3, 2025, 10:16 p.m.

Reference frame: TEME

Reference center: EARTH

Epoch: July 3, 2025, 1:52 p.m. UTC

TLE line 0: 0 FENGYUN 1C DEB

TLE line 1: 1 37918U 99025ENT 25184.57788475 .00001277 00000-0 46927-3 0 9992

TLE line 2: 2 37918 99.0092 127.1922 0057848 37.2184 323.2987 14.33591543 16830

Live tracking on map

Real-time ground track for satellite FENGYUN 1C DEB.

In-orbit conjunctions

A list of the most updated potential collisions computed for object FENGYUN 1C DEB.

Target Orbit TCA Probability of collision Miss distance Type
CZ-6A DEB LEO 2024-12-27 15:26:58 0.0002428815 456.0 (m) DEBRIS
NOAA 16 DEB SSO 2024-11-13 03:59:11 0.0004300431 493.0 (m) DEBRIS

Associated space launch

Chinese polar orbiting meteorological satellite

FENGYUN 1C DEB was lifted into orbit during the mission ‘Long March 4B | Feng Yun 1C’, on board a Long March 4B space rocket.

The launch took place on May 10, 1999, 1:33 a.m. from Launch Complex 7.

For more information about the launch, click the button.

Launch to space Long March 4B | Feng Yun 1C
Long March 4B | Feng Yun 1C

Agency: N/A

Status: Launch Successful

Launch date: May 10, 1999, 1:33 a.m. UTC

Rocket: Long March 4B

Launch pad: Launch Complex 7

Location: Taiyuan Satellite Launch Center, People's Republic of China

...

Latest news about this satellite

There are no fresh news available about this satellite. Check back as we update our databases every day.


Newsletter sign-up

Weekly statistics, charts and insights to help you stay on top of the space industry.